Location: Muenchen
(48.1800°N, 11.5800°E)
Time: 20:35:03
(UTC+02:00)

Iridium 36 - Visible Passes

Search period start: 17 April 2014 00:00
Search period end: 27 April 2014 00:00
Orbit: 773 x 776 km, 86.4° (Epoch: 17 April)

Date Brightness Start Highest point End Pass type
(mag) Time Alt. Az. Time Alt. Az. Time Alt. Az.
17 Apr 5.9 04:22:24 10° N 04:27:35 64° E 04:32:43 10° SSE visible
18 Apr 6.9 03:48:16 10° N 03:53:05 36° ENE 03:57:51 10° SE visible
18 Apr 6.3 05:29:06 10° NNW 05:33:40 32° W 05:38:13 10° SW visible
19 Apr 7.8 03:14:27 10° NNE 03:18:26 22° ENE 03:22:24 10° ESE visible
19 Apr 5.6 04:54:24 10° NNW 04:59:29 56° W 05:04:32 10° SSW visible
20 Apr 8.2 02:41:23 10° NE 02:43:39 13° ENE 02:45:54 10° E visible
20 Apr 5.5 04:19:57 10° N 04:25:11 84° E 04:30:23 10° S visible
21 Apr 6.4 03:45:42 10° N 03:50:45 48° E 03:55:45 10° SSE visible
21 Apr 6.7 05:26:58 10° NNW 05:31:06 25° W 05:35:13 10° SW visible
22 Apr 7.3 03:11:42 10° NNE 03:16:10 28° ENE 03:20:36 10° SE visible
22 Apr 6.0 04:52:06 10° NNW 04:56:59 42° W 05:01:50 10° SSW visible
23 Apr 8.0 02:38:09 10° NNE 02:41:27 17° ENE 02:44:44 10° ESE visible
23 Apr 5.4 04:17:32 10° N 04:22:44 74° W 04:27:11 14° S visible
24 Apr 5.9 03:43:11 10° N 03:48:22 64° E 03:52:34 16° SSE visible
24 Apr 7.0 05:24:57 10° NW 05:28:30 19° WNW 05:32:02 10° WSW visible
25 Apr 6.8 03:09:03 10° N 03:13:51 36° ENE 03:17:59 13° SE visible
25 Apr 6.3 04:49:52 10° NNW 04:54:26 32° W 04:58:22 13° SW visible
26 Apr 7.6 02:35:13 10° NNE 02:39:12 22° ENE 02:43:10 10° ESE visible
26 Apr 5.6 04:15:10 10° NNW 04:20:15 56° W 04:23:49 19° SSW visible
